星链-31000 (STARLINK-31000 )

导读 | 星芒AI

STARLINK-31000 是 SpaceX 星链(Starlink)卫星互联网项目中的一颗低轨通信卫星。该卫星属于星链计划的第三批部署,旨在为全球用户提供高速、低延迟的宽带互联网服务。它运行在约 550 公里的近地轨道,采用先进的通信技术,支持全球范围内的网络连接,尤其服务于偏远和网络基础设施薄弱的地区。STARLINK-31000 的发射和运行有助于提升星链系统的覆盖能力与服务质量。

基本信息
目录编号:
58488
目录名称:
STARLINK-31000
国际标识:
2023-186R
轨道中心:
EARTH
卫星名称:
星链-31000
卫星全名:
星链-31000 (STARLINK-31000 )
卫星状态:
在轨 (已飞行698 天)
发射日期:
2023-12-03 UTC
国别 :
美国 (US)
星等 :
--
轨道信息
数据来源 国际轨道数据 AOE轨道数据
星历时间 2025-10-31T00:01:31+0800
21小时前
查看轨道信息
2025-10-30T03:00:00+0800
1天前
查看轨道信息
半长轴 6937.218km 6937.196km
偏心率 0.0001267 0.0001446
轨道倾角 43.003° 43.005°
近地点辐角 273.731° 270.486°
升交点赤经 53.879° 58.641°
平近点角 86.339° 25.463°
近地点 558.204km 558.057km
远地点 559.962km 560.065km
周期 95.838分钟 95.838分钟
每日圈数 15.025356 15.025428
详细信息
固有亮度:
5
最大亮度:
0.3
卫星平台:
Starlink v2.0 mini
覆盖范围:
全球
运营商:
太空探索技术公司
运营商所在国:
美国
制造商(研发单位):
太空探索技术公司
制造商所在国:
美国
使用方式:
暂无
卫星简介
星链(Starlink)计划是由太空探索技术公司(SpaceX)提出的一个巨型低轨卫星互联网星座项目,计划在2019年至2024年间在太空搭建由约1.2万颗卫星组成的“星链”网络,其中1584颗将部署在地球上空550千米处的近地轨道,并从2020年开始工作。该卫星仍在工作。
2D轨道图
3D轨道图
轨道高度分析图
轨道倾角分析图
轨道综合分析图
查看轨道综合分析图